Change the Weather History Date:

Thursday, October 10, 2013

  Actual Average Record
Temperature  
Mean Temperature 49 °F 51 °F  
Max Temperature 58 °F 68 °F 80 °F (1996)
Min Temperature 40 °F 33 °F 28 °F (2001)
Degree Days  
Heating Degree Days 16 14  
Month to date heating degree days 152 125  
Since 1 July heating degree days 269 297  
Cooling Degree Days 0 0  
Month to date cooling degree days 0 0  
Year to date cooling degree days 667 426  
Moisture  
Dew Point 40 °F    
Average Humidity 68    
Maximum Humidity 93    
Minimum Humidity 43    
Precipitation  
Precipitation 0.72 in 0.05 in 0.72 in (2013)
Month to date precipitation 0.74 0.53  
Year to date precipitation 12.11 10.75  
Sea Level Pressure  
Sea Level Pressure 29.79 in    
Wind  
Wind Speed 8 mph (SSW)    
Max Wind Speed 28 mph    
Max Gust Speed 43 mph    
Visibility 7 miles    
Events Rain , Thunderstorm    
T = Trace of Precipitation, MM = Missing Value Source: NWS Daily Summary

Daily Weather History Graph

Daily Weather History Graph

Search for Another Location

Airport or City:

Trip Planner

Search our weather history database for the weather conditions in past years. The results will help you decide how hot, cold, wet, or windy it might be!

Date:

Astronomy

Oct. 10, 2013 Rise Set
Actual Time 7:18 AM MDT 6:44 PM MDT
Civil Twilight 6:52 AM MDT 7:10 PM MDT
Nautical Twilight 6:21 AM MDT 7:40 PM MDT
Astronomical Twilight 5:51 AM MDT 8:10 PM MDT
Moon 1:07 PM MDT (10/10) 11:30 PM MDT (10/10)
Length of Visible Light 12h 18m
Length of Day
11h 25m
Waxing Crescent, 36% of the Moon is Illuminated
Oct 10
Waxing Crescent
Oct 11
First Quarter
Oct 18
Full
Oct 26
Last Quarter
Nov 3
New

Hourly Weather History & Observations

Time (MDT) Temp. Windchill Dew Point Humidity Pressure Visibility Wind Dir Wind Speed Gust Speed Precip Events Conditions
12:41 AM 57.2 °F - 35.6 °F 44% 29.86 in 10.0 mi SSE 10.4 mph 44.9 mph 0.00 in Rain , Thunderstorm Light Rain
12:53 AM 57.0 °F - 36.0 °F 45% 29.66 in 10.0 mi SE 11.5 mph 20.7 mph 0.00 in   Mostly Cloudy
1:53 AM 55.0 °F - 37.0 °F 51% 29.70 in 10.0 mi South 12.7 mph 25.3 mph 0.01 in Rain Light Rain
2:07 AM 55.4 °F - 35.6 °F 47% 29.87 in 10.0 mi SSE 19.6 mph 39.1 mph 0.00 in Rain Light Rain
2:53 AM 51.1 °F - 39.9 °F 66% 29.69 in 7.0 mi South 17.3 mph 42.6 mph 0.01 in Rain Rain
3:53 AM 48.9 °F - 42.1 °F 77% 29.63 in 10.0 mi NE 5.8 mph - 0.00 in   Mostly Cloudy
4:09 AM 50.0 °F - 41.0 °F 71% 29.81 in 10.0 mi West 8.1 mph - N/A Thunderstorm Thunderstorm
4:37 AM 48.2 °F - 41.0 °F 76% 29.80 in 10.0 mi NNW 4.6 mph - 0.05 in   Overcast
4:53 AM 48.9 °F - 42.1 °F 77% 29.68 in 7.0 mi SW 5.8 mph - 0.06 in Rain , Thunderstorm Thunderstorms and Rain
5:24 AM 46.4 °F - 42.8 °F 87% 29.82 in 10.0 mi Calm Calm - 0.02 in   Mostly Cloudy
5:37 AM 46.4 °F 45.2 °F 44.6 °F 93% 29.84 in 3.0 mi SE 3.5 mph - 0.08 in Rain , Thunderstorm Thunderstorms and Rain
5:53 AM 46.9 °F - 43.0 °F 86% 29.63 in 10.0 mi Calm Calm - 0.10 in Rain Light Rain
6:53 AM 46.9 °F - 44.1 °F 90% 29.66 in 8.0 mi Calm Calm - 0.08 in Rain Light Rain
7:06 AM 46.4 °F - 44.6 °F 93% 29.81 in 9.0 mi Calm Calm - 0.00 in Rain Light Rain
7:53 AM 46.9 °F - 44.1 °F 90% 29.67 in 10.0 mi Calm Calm - 0.06 in Rain Light Rain
8:03 AM 46.4 °F 42.4 °F 42.8 °F 87% 29.83 in 2.5 mi West 8.1 mph - 0.03 in Rain , Thunderstorm Heavy Rain
8:05 AM 46.4 °F 42.4 °F 42.8 °F 87% 29.83 in 1.8 mi WSW 8.1 mph - 0.05 in Rain , Thunderstorm Heavy Rain
8:14 AM 46.4 °F 41.9 °F 42.8 °F 87% 29.82 in 2.5 mi SW 9.2 mph - 0.07 in Rain , Thunderstorm Light Rain
8:21 AM 46.4 °F 41.1 °F 42.8 °F 87% 29.82 in 4.0 mi SSW 11.5 mph - 0.08 in Rain , Thunderstorm Rain
8:29 AM 46.4 °F 41.5 °F 42.8 °F 87% 29.82 in 7.0 mi South 10.4 mph - 0.08 in Rain Light Rain
8:46 AM 46.4 °F 41.5 °F 42.8 °F 87% 29.82 in 2.0 mi SSW 10.4 mph - 0.13 in Rain Heavy Rain
8:49 AM 46.4 °F 40.1 °F 42.8 °F 87% 29.82 in 1.5 mi SSW 15.0 mph 19.6 mph 0.14 in Rain Heavy Rain
8:53 AM 46.0 °F 39.9 °F 43.0 °F 89% 29.67 in 1.8 mi SSW 13.8 mph 19.6 mph 0.15 in Rain Heavy Rain
9:04 AM 46.4 °F 40.7 °F 42.8 °F 87% 29.82 in 2.5 mi SSW 12.7 mph 28.8 mph 0.04 in Rain Heavy Rain
9:10 AM 46.4 °F 40.7 °F 42.8 °F 87% 29.82 in 6.0 mi SSW 12.7 mph - 0.04 in Rain Light Rain
9:35 AM 44.6 °F 39.2 °F 42.8 °F 93% 29.83 in 4.0 mi South 10.4 mph - 0.08 in Rain Rain
9:45 AM 44.6 °F 38.4 °F 42.8 °F 93% 29.85 in 2.0 mi South 12.7 mph - 0.12 in Rain Heavy Rain
9:53 AM 44.1 °F 35.2 °F 41.0 °F 89% 29.75 in 1.8 mi SW 23.0 mph - 0.14 in Rain Heavy Rain
9:57 AM 44.6 °F 36.9 °F 39.2 °F 81% 29.86 in 2.5 mi SW 18.4 mph 27.6 mph 0.02 in Rain Heavy Rain
10:06 AM 42.8 °F 34.3 °F 39.2 °F 87% 29.87 in 3.0 mi SSW 19.6 mph 26.5 mph 0.04 in Rain Heavy Rain
10:53 AM 41.0 °F 38.0 °F 37.9 °F 89% 29.76 in 10.0 mi Variable 4.6 mph - 0.07 in Rain Light Rain
11:10 AM 42.8 °F 39.3 °F 37.4 °F 81% 29.87 in 10.0 mi SE 5.8 mph - 0.02 in Rain Light Rain
11:53 AM 43.0 °F - 37.0 °F 80% 29.75 in 10.0 mi Calm Calm - 0.02 in Rain Light Rain
12:53 PM 44.1 °F - 37.9 °F 79% 29.73 in 10.0 mi Calm Calm - 0.00 in Rain Light Rain
1:16 PM 44.6 °F 43.1 °F 37.4 °F 76% 29.84 in 10.0 mi NNE 3.5 mph - 0.00 in   Overcast
1:49 PM 44.6 °F 43.1 °F 37.4 °F 76% 29.83 in 10.0 mi East 3.5 mph - 0.00 in Rain Light Rain
1:53 PM 45.0 °F - 37.9 °F 76% 29.71 in 10.0 mi Calm Calm - 0.00 in Rain Light Rain
2:53 PM 46.0 °F 39.9 °F 37.0 °F 71% 29.71 in 10.0 mi SSW 13.8 mph - 0.00 in   Overcast
3:53 PM 44.1 °F 37.7 °F 37.9 °F 79% 29.75 in 10.0 mi SSW 12.7 mph - 0.02 in   Overcast
4:53 PM 46.0 °F 38.5 °F 37.0 °F 71% 29.76 in 10.0 mi SSW 19.6 mph 26.5 mph 0.00 in   Overcast
5:53 PM 43.0 °F 34.8 °F 33.1 °F 68% 29.81 in 10.0 mi SW 18.4 mph 26.5 mph 0.00 in Rain Light Rain
6:53 PM 39.9 °F 32.5 °F 34.0 °F 79% 29.85 in 10.0 mi South 12.7 mph - 0.00 in   Overcast
7:53 PM 39.9 °F 35.1 °F 34.0 °F 79% 29.88 in 10.0 mi SSW 6.9 mph - N/A   Overcast
8:53 PM 41.0 °F 35.2 °F 33.1 °F 73% 29.89 in 10.0 mi South 9.2 mph - N/A   Overcast
9:53 PM 42.1 °F 37.7 °F 34.0 °F 73% 29.91 in 10.0 mi SSW 6.9 mph - N/A   Overcast
10:53 PM 42.1 °F 36.1 °F 34.0 °F 73% 29.93 in 10.0 mi South 10.4 mph - N/A   Overcast
11:53 PM 43.0 °F 38.2 °F 34.0 °F 71% 29.93 in 10.0 mi SW 8.1 mph - N/A   Overcast